{"data":{"norad_id":58860,"epoch":"2026-05-25T03:08:13.312032Z","epoch_age_seconds":57075,"freshness":"FRESH","line1":"1 58860U 24019H   26145.13070963  .00001242  00000+0  54671-4 0  9995","line2":"2 58860  43.0017 177.1758 0001291 274.9971  85.0734 15.27576642130772","mean_motion":15.27576642,"eccentricity":0.0001291,"inclination_deg":43.0017,"raan_deg":177.1758,"arg_perigee_deg":274.9971,"mean_anomaly_deg":85.0734,"bstar":5.4671e-5,"rev_number":13077,"period_min":94.266955935819,"perigee_km":482.173370695,"apogee_km":483.94493154122,"semimajor_km":6861.1961511181,"source":"CELESTRAK","updated_at":"2026-05-25T13:38:18.758733Z"}}